Date,TemperatureHighF,TemperatureAvgF,TemperatureLowF,DewpointHighF,DewpointAvgF,DewpointLowF,HumidityHigh,HumidityAvg,HumidityLow,PressureMaxIn,PressureMinIn,WindSpeedMaxMPH,WindSpeedAvgMPH,GustSpeedMaxMPH,PrecipitationSumIn
2013-4-1,79,65,53,58,38,-14,86,47,3,29.83,29.68,17,4,17,0.12
2013-4-2,78,59,45,48,25,10,84,34,13,29.97,29.83,13,2,13,0.00
2013-4-3,73,58,43,45,22,11,72,30,14,30.12,29.94,13,3,13,0.00
2013-4-4,56,52,49,50,36,11,83,58,18,30.12,29.71,18,6,24,0.58
2013-4-5,64,51,45,44,30,14,83,52,15,29.91,29.74,15,6,15,0.48
2013-4-6,80,58,39,47,26,10,97,38,13,30.12,29.88,18,3,18,0.00
2013-4-7,83,61,44,54,29,16,84,37,11,30.15,29.97,10,2,11,0.00
2013-4-8,88,66,49,51,32,19,82,37,10,30.06,29.94,10,2,11,0.00
2013-4-9,93,70,52,56,35,19,84,37,9,30.09,29.97,10,2,12,0.00
2013-4-10,90,71,55,57,35,18,84,35,10,30.06,29.88,13,2,13,0.00
2013-4-11,89,70,56,61,41,27,81,41,13,29.91,29.71,13,3,13,0.00
2013-4-12,86,73,67,67,56,36,88,60,18,29.74,29.56,22,4,22,0.92
2013-4-13,84,66,51,59,32,14,87,38,11,29.94,29.71,12,2,12,0.00
2013-4-14,75,62,49,53,34,20,71,40,13,29.97,29.85,14,2,14,0.21
2013-4-15,76,67,60,62,52,34,88,63,23,30.12,29.80,17,2,17,0.54
2013-4-16,88,69,56,64,39,18,98,45,10,30.18,30.00,10,2,10,0.00
2013-4-17,90,70,57,62,38,20,81,42,10,30.18,29.97,10,2,10,0.00
2013-4-18,87,71,58,61,39,22,81,40,11,30.09,29.88,14,3,14,0.00
2013-4-19,87,72,63,68,49,28,86,53,13,29.94,29.71,21,4,21,0.76
2013-4-20,67,57,45,61,30,12,83,42,15,30.21,29.85,17,5,17,0.50
2013-4-21,73,57,41,40,21,12,76,31,14,30.24,30.12,21,7,21,0.00
2013-4-22,74,59,49,21,14,4,27,17,14,30.21,30.03,17,7,17,0.00
2013-4-23,76,60,51,33,25,16,47,28,13,30.12,30.00,13,4,13,0.00
2013-4-24,87,66,46,48,29,16,82,33,11,30.09,29.91,13,3,13,0.00
2013-4-25,89,70,59,59,40,21,81,39,10,30.18,29.97,10,3,10,0.00
2013-4-26,82,67,50,58,33,8,82,39,12,30.27,30.15,15,5,15,0.00
2013-4-27,81,62,50,45,28,12,56,31,12,30.27,30.12,10,2,10,0.00
2013-4-28,80,65,52,55,39,24,79,41,15,30.15,29.94,13,2,13,0.16
2013-4-29,84,68,63,63,52,26,85,61,14,29.97,29.83,15,2,15,1.05
2013-4-30,82,68,62,66,53,26,92,67,15,30.03,29.88,9,2,10,0.37